Regional Weather Roundup
Issued by NWS Midland/Odessa, TX

Home | Current Version | Previous Version | Text Only | Print | Product List | Glossary On
Versions: 1 2 3 4 5 6 7 8 9 10 11 12 13 14 15 16 17 18 19 20 21 22 23 24 25 26 27 28 29 30 31 32 33 34 35 36 37 38 39 40 41 42 43 44 45 46 47 48 49 50
000
ASUS44 KMAF 260710
RWRMAF
MIDLAND AREA WEATHER ROUNDUP
NATIONAL WEATHER SERVICE MIDLAND TX
100 AM CST SUN FEB 26 2017

...IN SOUTHWEST TEXAS AND SOUTHEAST NEW MEXICO...

CITY           SKY/WX    TMP DP  RH WIND       PRES   REMARKS
ALPINE         CLEAR     50  13  22 CALM      29.99F
ANDREWS        FAIR      45  28  51 S10G16    29.88F WCI  40
ARTESIA        CLEAR     41  18  38 S7        29.86S WCI  36
BIG SPRING     CLEAR     44  30  58 SE9       29.92F WCI  39
CARLSBAD       CLEAR     40  19  43 SW3       29.85F
DRYDEN           N/A     48  30  49 NE6       29.92S
FORT STOCKTON  CLEAR     49  31  49 SE15      29.90S
GUAD PASS      CLEAR     45   4  18 W20         N/A  WCI  37
HOBBS          CLEAR     41  25  52 S12       29.88F WCI  34
MARFA          CLEAR     30   7  37 NE6       29.97F WCI  24
MIDLAND AIRPK  CLEAR     51  30  45 S10G18    29.89F
MIDLAND INTL   CLEAR     50  29  44 S12       29.89F
ODESSA         CLEAR     50  28  42 S14       29.89F
PECOS          CLEAR     43  23  44 CALM      29.88S
PRESIDIO       FAIR      56  11  16 N12       29.92R
SEMINOLE       CLEAR    N/A N/A N/A S8        29.89S
SNYDER         CLEAR     41  29  64 SE10      29.91F WCI  34
WINK           CLEAR     45  28  51 SE9       29.87F
$$
...OTHER STATIONS IN TEXAS...

CITY           SKY/WX    TMP DP  RH WIND       PRES   REMARKS
ABILENE        CLEAR     43  28  55 S17G26    29.92F WCI  35
AMARILLO       CLEAR     34  22  61 S14       29.86F WCI  25
AUSTIN         CLEAR     38  35  89 CALM      30.04F
BROWNSVILLE    PTCLDY    68  63  84 E6        29.99F
CORPUS CHRISTI PTCLDY    59  56  89 NE9       30.02F
DALLAS FTW     MOCLDY    43  27  53 E6        30.03F WCI  39
DEL RIO        CLEAR     52  34  50 SE14      29.97F
EL PASO        CLEAR     53   1  12 N3        29.94S
HOUSTON INT    PTCLDY    46  36  68 E12       30.06F
LUBBOCK        CLEAR     38  25  59 SE10      29.87F WCI  31
SAN ANGELO     CLEAR     48  31  51 SE7       29.94F
SAN ANTONIO    PTCLDY    45  32  60 CALM      30.04F
WACO           CLEAR     38  32  79 E5        30.05F WCI  34
WICHITA FALLS  NOT AVBL
$$
...OTHER LOCATIONS IN NEW MEXICO...

CITY           SKY/WX    TMP DP  RH WIND       PRES   REMARKS
ALAMAGORDO     PTCLDY    48   9  20 SE6       29.93F
ALBUQUERQUE    MOCLDY    40   5  23 W5        29.89F WCI  37
CANNON AFB     CLEAR     32  23  71 SE6       29.83F WCI  26
CLOVIS         CLEAR     30  19  64 S7        29.83F WCI  23
HOLLOMAN AFB   CLOUDY    53   3  13 SW10      29.96S
ROSWELL        CLEAR     43  15  32 S13         N/A  WCI  36
RUIDOSO        CLOUDY    39  -4  16 W16       29.92S WCI  30
SANTA FE       CLOUDY    26   5  40 N5        29.85F WCI  20
TRUTH OR CONSE PTCLDY    43   2  18 W8        29.91S WCI  38
TUCUMCARI      CLEAR     40  16  37 S6        29.81F WCI  36
$$



USA.gov is the U.S. government's official web portal to all federal, state and local government web resources and services.